User: anonymous   Login
Location: Charleston
(38.3500°N, 81.6330°W)
Time: 08:09:54
(UTC-04:00)
Language:

Cosmos 2228 - Orbit

View from above orbital plane
View from above orbital plane
View from above satellite
View from above satellite

Ground track
Ground track

The orbit data is extracted from the following two-line orbital elements,

1 22286U 92094A   15211.19512636  .00000483  00000-0  50988-4 0  9996
2 22286 082.5232 302.5043 0019498 242.4282 117.4955 14.87040089220227
Epoch (UTC): 30 July 2015 04:40:58
Eccentricity: 0.0019498
inclination: 82.5232°
perigee height: 593 km
apogee height: 621 km
right ascension of ascending node: 302.5043°
argument of perigee: 242.4282°
revolutions per day: 14.87040089
mean anomaly at epoch: 117.4955°
orbit number at epoch: 22022

The dashed part of the orbit path shows where the satellite is in the earth's shadow,  

DLR